Regional Weather Roundup
Issued by NWS

Home | Current Version | Previous Version | Text Only | Print | Product List | Glossary Off
Versions: 1 2 3 4 5 6 7 8 9 10 11 12 13 14 15 16 17 18 19 20 21 22 23 24 25 26 27 28 29 30 31 32 33 34 35 36 37 38 39 40 41 42 43 44 45 46 47 48 49 50

000
ASUS45 KCYS 251910
RWRWY

WYOMING REGIONAL WEATHER ROUNDUP
NATIONAL WEATHER SERVICE CHEYENNE WY
1200 PM MST SUN JAN 25 2015

NOTE:  "FAIR" INDICATES FEW OR NO CLOUDS BELOW 12,000 FEET
WITH NO SIGNIFICANT WEATHER AND/OR OBSTRUCTIONS TO VISIBILITY.

WYZ001-252000-
YELLOWSTONE NATIONAL PARK

CITY           SKY/WX    TMP DP  RH WIND       PRES   REMARKS
LK YELLOWSTONE   N/A     30  25  81 CALM      30.39F
W YELLOWSTONE  NOT AVBL

$$
WYZ002>013-054>058-071-098>099-252000-
NORTHERN WYOMING

CITY           SKY/WX    TMP DP  RH WIND       PRES   REMARKS
JACKSON        CLOUDY    30  28  93 CALM      30.40S
CODY           FAIR      55  27  33 W18G33    30.08F
GREYBULL       FAIR      30  24  78 CALM      30.14F
WORLAND        FAIR      25  21  85 VRB6      30.13F WCI  18
SHERIDAN       FAIR      46  34  62 S6        30.03S
BUFFALO        FAIR      52  34  50 S7        30.05F
GILLETTE       FAIR      47  34  60 SW14      30.04F
HULETT           N/A    N/A N/A N/A MISG        N/A
NEWCASTLE      FAIR      39  30  70 CALM      30.08F

$$
WYZ014>020-022>026-101>103-252000-
CENTRAL WYOMING

CITY           SKY/WX    TMP DP  RH WIND       PRES   REMARKS
BIG PINEY      FAIR      34  26  72 VRB3      30.35F
PINEDALE       FAIR      36  30  80 W13       30.34F WCI  27
DUBOIS         FAIR      43  27  52 NW28G36   30.25F
LANDER         FAIR      39  26  59 NW5       30.15S
RIVERTON       FAIR      36  26  67 CALM      30.16F
CASPER         FAIR      43  26  51 SW21G31   30.14F
DOUGLAS        FAIR      52  28  39 NW20G29   30.11F

$$
WYZ021-027>030-104>119-252000-
SOUTHERN WYOMING

CITY           SKY/WX    TMP DP  RH WIND       PRES   REMARKS
EVANSTON       FAIR      40  31  70 SW9       30.43F WCI  34
KEMMERER       FAIR      37  32  81 W17G23    30.41F WCI  28
FORT BRIDGER   FAIR      45  33  63 W16G24    30.43F
ROCK SPRINGS   FAIR      41  30  65 W23G33    30.32F
DIXON          FAIR      40  28  62 S13G18    30.38F WCI  33
RAWLINS        FAIR      41  29  62 W22G36    30.25F
SARATOGA       FAIR      41  28  60 W20G30    30.30S
LARAMIE        FAIR      44  26  49 W24       30.18F
CHEYENNE       CLOUDY    49  26  41 NW23G33   30.13F
TORRINGTON     CLOUDY    47  29  49 NW7       30.10F
PINE BLUFFS    MOCLDY    48  30  49 NW16G30   30.13F

$$



USA.gov is the U.S. government's official web portal to all federal, state and local government web resources and services.